Flag for U.S.A. Weather past 2 weeks in Tucson, Arizona, U.S.A.

Now
77 °F

Clear.


Feels Like: 78 °F
Forecast: 74 / 101 °F
Wind: 8 mph from East

Location: Davis-Monthan Air Force Base

Current Time: Aug 28, 2015 at 3:05:47 AM

Latest Report: Aug 28, 2015 at 1:58 AM


Visibility: 10 mi

Pressure: 29.85 "Hg (27.37 "Hg at 758m altitude)

Humidity: 65%

Dew point: 64 °F

Location of TucsonLocation

Historic Weather in Tucson — Graph

°F

Tucson temperature yesterday

Maximum temperature yesterday: 98 °F (at 2:58 PM)
Minimum temperature yesterday: 73 °F (at 5:58 AM)
Average temperature yesterday: 84 °F

Past Weeks' High & Low Weather Summary

 TemperatureHumidityPressure
High107 °F (Aug 15, 3:58 PM)88% (Aug 25, 2:03 AM)30.05 "Hg (Aug 25, 2:03 AM)
Low70 °F (Aug 23, 5:58 AM)14% (Aug 15, 3:58 PM)29.67 "Hg (Aug 18, 4:58 PM)
Average87 °F45%29.84 "Hg
* Reported Aug 13 1:58 AM — Aug 28 1:58 AM, Tucson, Weather by CustomWeather, © 2015

Note: Actual official high and low records may vary slightly from our data, if they occured in-between our weather recording intervals... More about our weather records

Advertising

Tucson weather history for previous 24 hours

 ConditionsComfort  
Time TempWeatherWind HumidityBarometerVisibility
1:58 AM
Fri, Aug 28
77 °FClear.8 mph65%29.85 "Hg10 mi
12:58 AM78 °FClear.5 mph57%29.86 "Hg10 mi
11:58 PM
Thu, Aug 27
78 °FClear.7 mph56%29.88 "Hg8 mi
10:58 PM78 °FPassing clouds.9 mph56%29.90 "Hg10 mi
9:58 PM78 °FClear.13 mph60%29.90 "Hg10 mi
8:58 PM79 °FPassing clouds.12 mph62%29.93 "Hg10 mi
7:58 PM82 °FPassing clouds.26 mph47%29.89 "Hg10 mi
6:58 PM80 °FThunderstorms. Passing clouds.28 mph58%29.88 "Hg10 mi
5:58 PM95 °FThundershowers. Scattered clouds.9 mph27%29.82 "Hg10 mi
4:58 PM97 °FSunny.7 mph25%29.82 "Hg10 mi
3:58 PM98 °FSunny.6 mph24%29.82 "Hg10 mi
2:58 PM98 °FSunny.2 mph24%29.85 "Hg10 mi
1:58 PM96 °FSunny.7 mph27%29.86 "Hg10 mi
12:58 PM96 °FSunny.2 mph27%29.90 "Hg10 mi
11:58 AM94 °FSunny.No wind29%29.93 "Hg10 mi
10:58 AM91 °FSunny.6 mph34%29.97 "Hg10 mi
9:58 AM88 °FSunny.1 mph39%29.98 "Hg10 mi
8:58 AM85 °FSunny.5 mph46%29.98 "Hg10 mi
7:58 AM80 °FSunny.5 mph58%29.98 "Hg10 mi
6:58 AM75 °FSunny.9 mph70%29.97 "Hg10 mi
5:58 AM73 °FOvercast.9 mph72%29.97 "Hg10 mi
4:58 AM74 °FPassing clouds.8 mph69%29.94 "Hg10 mi
3:58 AM75 °FClear.8 mph68%29.92 "Hg10 mi
Weather by CustomWeather, © 2015

See weather overviewHow to use our weather pages